[[{"header":{"parameterUnit":"m.s-1","parameterCategory":2,"la1":30.2991,"la2":30.254,"lo1":-89.0895,"lo2":-89.0444,"dy":0.0017,"dx":0.0017,"nx":28,"ny":28,"refTime":"2025-05-30T03:00:00:Z","depth":"0","parameterNumber":2,"parameterNumberName":"U-component_of_CURRENTS"},"data":[0,0,0,0,0,0,0,0,0,0,0,0,0,0,0,0,0,0,0,0,0,0,0,0,0,0,0,0,0,0,0,0,0,0,0,0,0,0,0,0,0,0,0,0,0,0,0,0,0,0,0,0,0,0,0,0,0,0,0.2109,0.2109,0,0.2148,0.2148,0.2148,0.213,0.213,0.2129,0.2129,0.2106,0.2106,0.2106,0,0,0,0,0,0,0,0,0,0,0,0,0,0.2052,0.2053,0.2109,0.2109,0.211,0.2148,0.2148,0.2148,0.2131,0.213,0.2129,0.2128,0.2106,0.2106,0.2106,0,0,0,0,0,0,0,0,0,0,0,0,0,0.2079,0.2053,0.2108,0.2109,0.211,0.2148,0.2148,0.2148,0.2131,0.213,0.2129,0.2128,0.2106,0.2106,0.2106,0.2125,0,0,0.2106,0.2106,0,0,0,0,0,0,0,0,0.2077,0.208,0.2108,0.2109,0.211,0.2137,0.212,0.2139,0.2131,0.2119,0.2129,0.2128,0.2114,0.2113,0.2118,0.2123,0.2123,0.2106,0.2106,0.2106,0.2106,0,0,0,0,0,0,0,0.2075,0.2079,0.212,0.2109,0.211,0.2119,0.2121,0.2124,0.2117,0.212,0.2119,0.213,0.2113,0.2118,0.2117,0.2122,0.2106,0.2106,0.2106,0.2106,0.2138,0.2139,0,0,0,0,0,0,0.2078,0.2077,0.2119,0.2122,0.2095,0.2121,0.2123,0.2126,0.2118,0.2118,0.2131,0.2129,0.2119,0.2117,0.2116,0.2179,0.2106,0.2106,0.2106,0.2137,0.2138,0.2139,0,0,0,0,0,0,0.2076,0.2081,0.2118,0.2104,0.211,0.2123,0.2126,0.2127,0.2137,0.2128,0.2125,0.2141,0.2118,0.2116,0.2148,0.2177,0.2106,0.2106,0.2136,0.2137,0.2138,0.2279,0,0,0,0,0,0,0.2074,0.208,0.2082,0.2104,0.2111,0.216,0.2128,0.2129,0.2147,0.2145,0.2136,0.2132,0.2117,0.2149,0.2148,0.2175,0.2106,0.2135,0.2136,0.2138,0.2273,0.2285,0.2295,0,0,0,0,0,0.2072,0.208,0.2082,0.2087,0.2113,0.2162,0.2167,0.217,0.2148,0.2171,0.217,0.2133,0.2157,0.2151,0.215,0.2177,0.2134,0.2136,0.2138,0.2268,0.2282,0.2294,0,0,0,0,0,0,0.2058,0.2081,0.2082,0.2097,0.2137,0.2161,0.2175,0.2179,0.2195,0.2186,0.2166,0.2165,0.2201,0.2165,0.2159,0.2185,0.213,0.2132,0.2229,0.2242,0.2253,0.2257,0.2106,0,0,0,0,0,0.2058,0.2067,0.2104,0.2119,0.2136,0.2156,0.2173,0.2184,0.2203,0.2208,0.2212,0.2201,0.2207,0.2208,0.221,0.2234,0.2226,0.224,0.2251,0.2261,0.226,0.2303,0.2319,0.2145,0.2145,0.2145,0,0,0.2054,0.2071,0.2075,0.2118,0.2137,0.2183,0.2163,0.22,0.2244,0.2203,0.2257,0.2251,0.2224,0.2261,0.2269,0.2236,0.2307,0.2263,0.2273,0.2266,0.2307,0.2324,0.2339,0.2147,0.2146,0.2146,0,0,0.2063,0.2071,0.2087,0.2127,0.2174,0.2202,0.2218,0.2262,0.2283,0.2341,0.2318,0.2337,0.2347,0.2345,0.2337,0.2402,0.2372,0.2387,0.2443,0.2486,0.2502,0.2515,0.2542,0.2557,0.2384,0.2384,0.2384,0,0.2057,0.2088,0.2104,0.2143,0.2183,0.2214,0.2262,0.23,0.2355,0.2378,0.2372,0.2399,0.2387,0.2416,0.2443,0.243,0.2444,0.2406,0.2505,0.2518,0.2529,0.2553,0.2568,0.2391,0.239,0.239,0.2389,0,0.2089,0.2121,0.214,0.2199,0.2246,0.2297,0.2358,0.2408,0.2437,0.2469,0.2521,0.2523,0.2523,0.253,0.2513,0.2574,0.2557,0.2529,0.2483,0.2556,0.2575,0.2588,0.2401,0.2399,0.2396,0.2395,0,0,0.2061,0.2143,0.2152,0.2193,0.2283,0.2327,0.2407,0.2488,0.2523,0.2585,0.2627,0.2663,0.2649,0.2637,0.2618,0.2659,0.2766,0.2636,0.2635,0.2682,0.2865,0.2718,0.2717,0.277,0.2773,0.2775,0.2853,0,0.2086,0.2162,0.2204,0.2296,0.2345,0.2409,0.248,0.2552,0.2603,0.2656,0.2673,0.2698,0.2692,0.2685,0.2739,0.2754,0.2803,0.2746,0.2768,0.2768,0.2645,0.2727,0.2569,0.2614,0.2865,0.2867,0.2869,0,0.2109,0.2163,0.2243,0.2346,0.2372,0.2431,0.2535,0.2601,0.2677,0.2707,0.2743,0.2746,0.2806,0.2779,0.2879,0.285,0.287,0.2888,0.289,0.2707,0.2644,0.2575,0.2626,0.2514,0.2887,0.2886,0.2885,0,0.2085,0.2193,0.2259,0.2298,0.2413,0.2458,0.2522,0.2608,0.2661,0.2721,0.2748,0.2812,0.2836,0.2897,0.2932,0.292,0.3035,0.3009,0.29,0.2889,0.2729,0.2699,0.2683,0.3084,0.3083,0.3083,0.3083,0,0.2096,0.2148,0.225,0.2285,0.2373,0.2445,0.2525,0.2587,0.2659,0.2721,0.2757,0.2807,0.2874,0.2935,0.2966,0.297,0.3063,0.2923,0.2905,0.277,0.2744,0.2612,0.2597,0.3086,0.3085,0.3085,0.3084,0,0.2052,0.2118,0.2204,0.2323,0.2359,0.2419,0.2532,0.2589,0.2645,0.272,0.2737,0.283,0.2909,0.2954,0.3043,0.2988,0.2906,0.2983,0.2807,0.2764,0.2499,0.2497,0.24,0.2346,0.287,0.2867,0.2864,0,0.2036,0.207,0.2212,0.2278,0.2331,0.2422,0.2491,0.2573,0.263,0.2741,0.278,0.2858,0.2925,0.2973,0.2896,0.2888,0.2834,0.2687,0.2611,0.2467,0.2456,0.2398,0.2358,0.2479,0.2473,0.2469,0.2465,0,0.2013,0.2063,0.2143,0.2276,0.2365,0.2453,0.2544,0.258,0.2677,0.2722,0.2811,0.2864,0.2879,0.2788,0.2711,0.2671,0.2513,0.2586,0.2505,0.2196,0.207,0.2013,0.2446,0.2425,0.2429,0.2432,0.2434,0.2436,0.2007,0.2062,0.2181,0.2304,0.2401,0.2483,0.2505,0.2582,0.264,0.2662,0.2779,0.2771,0.2666,0.2536,0.2472,0.2139,0.225,0.201,0.2041,0.2011,0.1877,0.2195,0.2095,0.2097,0.2099,0.2101,0.2102,0,0.2017,0.2094,0.2209,0.2348,0.2434,0.2483,0.2546,0.2524,0.2536,0.2562,0.2589,0.2444,0.2283,0.2135,0.1785,0.1617,0.1567,0.1535,0.145,0.1459,0.1791,0.1686,0.1409,0.1409,0.1409,0.1409,0.141,0.141,0.2035,0.2134,0.2202,0.2355,0.2432,0.2452,0.2458,0.2395,0.2368,0.223,0.2105,0.2091,0.1916,0.1606,0.1289,0.1228,0.1151,0.1048,0.1126,0.1367,0.1415,0.146,0.1354,0.1013,0.1013,0.0699,0.0697,0.0695]},{"header":{"parameterUnit":"m.s-1","parameterCategory":2,"la1":30.2991,"la2":30.254,"lo1":-89.0895,"lo2":-89.0444,"dy":0.0017,"dx":0.0017,"nx":28,"ny":28,"refTime":"2025-05-30T03:00:00:Z","depth":"0","parameterNumber":3,"parameterNumberName":"V-component_of_CURRENTS"},"data":[0,0,0,0,0,0,0,0,0,0,0,0,0,0,0,0,0,0,0,0,0,0,0,0,0,0,0,0,0,0,0,0,0,0,0,0,0,0,0,0,0,0,0,0,0,0,0,0,0,0,0,0,0,0,0,0,0,0,0.0087,0.0087,0,0.0084,0.0084,0.0084,0.0079,0.0079,0.0079,0.0079,0.008,0.008,0.0081,0,0,0,0,0,0,0,0,0,0,0,0,0,0.0064,0.0064,0.0087,0.0087,0.0087,0.0084,0.0084,0.0084,0.0079,0.0079,0.0079,0.0079,0.008,0.008,0.0081,0,0,0,0,0,0,0,0,0,0,0,0,0,0.0068,0.0065,0.0087,0.0085,0.0084,0.0084,0.0084,0.0084,0.0079,0.0079,0.0079,0.0079,0.008,0.008,0.0081,0.0082,0,0,0.0081,0.0081,0,0,0,0,0,0,0,0,0.0068,0.0069,0.0085,0.0085,0.0085,0.0082,0.0076,0.0083,0.0079,0.008,0.0079,0.0079,0.0082,0.0082,0.008,0.0082,0.0082,0.0081,0.0081,0.0081,0.0081,0,0,0,0,0,0,0,0.0068,0.0069,0.0085,0.0085,0.0085,0.0076,0.0076,0.0077,0.0081,0.008,0.008,0.0081,0.0082,0.008,0.008,0.0082,0.0081,0.0081,0.0081,0.0081,0.0094,0.0094,0,0,0,0,0,0,0.0071,0.0069,0.0085,0.0085,0.0077,0.0076,0.0077,0.0082,0.0081,0.008,0.0081,0.0081,0.008,0.008,0.008,0.0085,0.0081,0.0081,0.0081,0.0093,0.0094,0.0094,0,0,0,0,0,0,0.0071,0.0073,0.0085,0.0077,0.0078,0.0077,0.0083,0.0082,0.0081,0.0081,0.0081,0.008,0.008,0.008,0.0086,0.0085,0.0081,0.0081,0.0093,0.0094,0.0094,0.0093,0,0,0,0,0,0,0.007,0.0073,0.0076,0.0077,0.0079,0.0093,0.0083,0.0082,0.0082,0.0081,0.008,0.008,0.008,0.0086,0.0086,0.0085,0.0081,0.0093,0.0093,0.0094,0.0092,0.0093,0.0093,0,0,0,0,0,0.0069,0.0077,0.0077,0.0078,0.0084,0.0093,0.0093,0.0091,0.0082,0.0088,0.0084,0.008,0.0089,0.0086,0.0086,0.0085,0.0092,0.0093,0.0094,0.0092,0.0093,0.0093,0,0,0,0,0,0,0.0069,0.0077,0.0077,0.0087,0.0093,0.0093,0.0096,0.0091,0.0091,0.0089,0.0084,0.0085,0.0088,0.009,0.0086,0.0092,0.009,0.0091,0.0089,0.0089,0.009,0.0089,0.0081,0,0,0,0,0,0.0071,0.0079,0.0086,0.0094,0.0097,0.0095,0.0096,0.0096,0.0096,0.0096,0.0095,0.0093,0.009,0.0093,0.0094,0.0098,0.0124,0.0098,0.0099,0.0099,0.0099,0.0154,0.016,0.0096,0.0096,0.0096,0,0,0.0073,0.0078,0.0083,0.0094,0.0096,0.0104,0.0096,0.0102,0.0103,0.0096,0.0098,0.0095,0.0092,0.0096,0.0097,0.0097,0.0131,0.01,0.0101,0.01,0.0155,0.0162,0.0167,0.0097,0.0097,0.0096,0,0,0.0085,0.0087,0.0099,0.0104,0.0112,0.0111,0.0113,0.0116,0.0113,0.0116,0.0107,0.0105,0.0107,0.0103,0.01,0.0106,0.0131,0.0107,0.0109,0.0163,0.0169,0.0174,0.0214,0.0223,0.0109,0.0109,0.0109,0,0.0087,0.0103,0.0104,0.0116,0.0118,0.0114,0.0124,0.0122,0.0125,0.0121,0.012,0.0115,0.0109,0.0107,0.0105,0.0106,0.0143,0.0105,0.0164,0.017,0.0176,0.0216,0.0226,0.0109,0.0109,0.0109,0.0109,0,0.011,0.0119,0.0126,0.0138,0.014,0.015,0.0146,0.0145,0.0138,0.0134,0.0133,0.0128,0.0126,0.0121,0.0111,0.0138,0.0152,0.0159,0.0163,0.0183,0.0223,0.0234,0.0109,0.0109,0.0109,0.0109,0,0,0.0127,0.0141,0.0143,0.0147,0.0152,0.0156,0.0154,0.0154,0.0153,0.015,0.016,0.0138,0.0134,0.0131,0.0123,0.0157,0.0218,0.0174,0.0177,0.0215,0.034,0.0317,0.0326,0.0247,0.0249,0.025,0.0352,0,0.0146,0.017,0.0168,0.0181,0.0191,0.0178,0.0177,0.0171,0.0169,0.0179,0.0166,0.0174,0.0139,0.0145,0.017,0.0222,0.0247,0.019,0.0315,0.0318,0.0296,0.0338,0.0336,0.0424,0.0363,0.0364,0.0366,0,0.0172,0.0182,0.0203,0.0199,0.0201,0.0204,0.0198,0.0198,0.02,0.02,0.0199,0.0202,0.023,0.0209,0.0293,0.0266,0.0292,0.0324,0.033,0.0315,0.0314,0.0396,0.0446,0.0391,0.0382,0.0381,0.038,0,0.0191,0.0202,0.0217,0.0219,0.0219,0.0216,0.021,0.0204,0.0209,0.0223,0.0247,0.0264,0.0306,0.0344,0.0385,0.0359,0.0497,0.0475,0.0466,0.0465,0.0489,0.0486,0.0501,0.0522,0.0522,0.0522,0.0521,0,0.0215,0.0225,0.0226,0.0237,0.0239,0.023,0.0236,0.0229,0.0243,0.0273,0.0263,0.0314,0.035,0.0419,0.0431,0.0495,0.0536,0.0477,0.0496,0.0486,0.0482,0.0455,0.0411,0.0525,0.0525,0.0524,0.0523,0,0.0237,0.0244,0.0258,0.0257,0.0253,0.0254,0.0252,0.0261,0.0273,0.0323,0.0337,0.0393,0.0496,0.0517,0.0611,0.0571,0.06,0.0618,0.0592,0.0604,0.0515,0.0471,0.0505,0.0518,0.0633,0.0633,0.0633,0,0.0253,0.0265,0.0272,0.0279,0.0279,0.0277,0.0279,0.0273,0.0295,0.0381,0.0421,0.0523,0.0619,0.0726,0.0697,0.072,0.0651,0.0672,0.0598,0.0517,0.0484,0.0445,0.0451,0.0637,0.0638,0.0638,0.0638,0,0.0274,0.0279,0.0292,0.0308,0.0311,0.0316,0.0325,0.0353,0.0379,0.0455,0.0585,0.0681,0.0761,0.0814,0.0794,0.0772,0.0628,0.0671,0.0618,0.0508,0.0442,0.0462,0.0549,0.0639,0.0639,0.0639,0.0638,0.0638,0.0288,0.0299,0.032,0.0329,0.0341,0.0369,0.0401,0.0456,0.0538,0.0697,0.0733,0.0931,0.0896,0.0897,0.0833,0.0656,0.066,0.0587,0.055,0.0525,0.05,0.0568,0.0651,0.0651,0.0651,0.0651,0.0651,0,0.0297,0.0313,0.0335,0.0357,0.0381,0.038,0.0443,0.0522,0.0672,0.0848,0.0996,0.1105,0.1046,0.0929,0.0675,0.0554,0.0518,0.0483,0.0434,0.0456,0.0555,0.0514,0.0536,0.0536,0.0536,0.0536,0.0536,0.0536,0.0305,0.0326,0.0338,0.0382,0.0406,0.0469,0.0524,0.0685,0.0842,0.1106,0.1261,0.1357,0.121,0.0736,0.0455,0.041,0.0358,0.032,0.0319,0.0362,0.0368,0.0375,0.0327,0.0309,0.0309,0.0248,0.0247,0.0246]}],[{"header":{"parameterUnit":"m.s-1","parameterCategory":2,"la1":30.2991,"la2":30.254,"lo1":-89.0895,"lo2":-89.0444,"dy":0.0017,"dx":0.0017,"nx":28,"ny":28,"refTime":"2025-05-30T03:00:00:Z","depth":"2","parameterNumber":2,"parameterNumberName":"U-component_of_CURRENTS"},"data":[0,0,0,0,0,0,0,0,0,0,0,0,0,0,0,0,0,0,0,0,0,0,0,0,0,0,0,0,0,0,0,0,0,0,0,0,0,0,0,0,0,0,0,0,0,0,0,0,0,0,0,0,0,0,0,0,0,0,0.1378,0.1377,0,0.1365,0.1365,0.1366,0.1411,0.1412,0.1413,0.1413,0.1432,0.1432,0.1432,0,0,0,0,0,0,0,0,0,0,0,0,0,0.1406,0.1406,0.1378,0.1377,0.1377,0.1365,0.1366,0.1366,0.1411,0.1412,0.1413,0.1414,0.1432,0.1432,0.1432,0,0,0,0,0,0,0,0,0,0,0,0,0,0.1399,0.1406,0.1378,0.1394,0.1395,0.1365,0.1366,0.1366,0.141,0.1412,0.1413,0.1414,0.1432,0.1432,0.1432,0.1403,0,0,0.143,0.143,0,0,0,0,0,0,0,0,0.1399,0.1398,0.1392,0.1393,0.1393,0.1386,0.1382,0.1378,0.141,0.141,0.1413,0.1415,0.1415,0.1416,0.1418,0.1404,0.1404,0.143,0.143,0.143,0.143,0,0,0,0,0,0,0,0.14,0.1399,0.1378,0.1391,0.1392,0.1389,0.139,0.1382,0.141,0.141,0.1412,0.1402,0.1417,0.1419,0.1419,0.1405,0.143,0.143,0.1429,0.1429,0.1457,0.1458,0,0,0,0,0,0,0.1391,0.1399,0.1379,0.1377,0.1394,0.1387,0.1389,0.1392,0.141,0.1412,0.1401,0.1404,0.1419,0.1419,0.142,0.1469,0.143,0.1429,0.1429,0.1456,0.1457,0.1459,0,0,0,0,0,0,0.1392,0.139,0.1379,0.1383,0.1381,0.1385,0.1388,0.1391,0.1409,0.1401,0.1406,0.1417,0.142,0.142,0.1445,0.1467,0.1429,0.1429,0.1455,0.1457,0.1458,0.1514,0,0,0,0,0,0,0.1393,0.1391,0.1389,0.1383,0.138,0.1397,0.1386,0.1389,0.1397,0.1401,0.1416,0.1418,0.1421,0.1446,0.1444,0.1466,0.1428,0.1454,0.1456,0.1458,0.1511,0.1517,0.1523,0,0,0,0,0,0.1394,0.1388,0.139,0.1387,0.1379,0.1398,0.1399,0.1408,0.1396,0.1425,0.1429,0.1419,0.1457,0.1446,0.1444,0.1466,0.1453,0.1455,0.1457,0.1508,0.1516,0.1523,0,0,0,0,0,0,0.1397,0.1391,0.1393,0.1385,0.1406,0.1405,0.1414,0.1411,0.1433,0.143,0.1429,0.1433,0.1465,0.1453,0.1441,0.148,0.1453,0.1455,0.1493,0.15,0.1506,0.1533,0.1428,0,0,0,0,0,0.1394,0.1397,0.1399,0.14,0.1409,0.1412,0.1414,0.142,0.143,0.1441,0.1447,0.1452,0.1467,0.1476,0.1486,0.1498,0.1517,0.1511,0.1517,0.1522,0.1544,0.1603,0.1617,0.1466,0.1466,0.1466,0,0,0.1393,0.139,0.1391,0.1402,0.1414,0.1423,0.1421,0.1433,0.1445,0.1436,0.1461,0.1473,0.1476,0.1506,0.1518,0.1502,0.1572,0.1525,0.153,0.1549,0.1607,0.1622,0.1635,0.1468,0.1467,0.1467,0,0,0.1392,0.1399,0.1401,0.1423,0.1435,0.1434,0.1441,0.1451,0.1473,0.1486,0.1493,0.1528,0.1525,0.1557,0.1563,0.1603,0.1604,0.1595,0.1645,0.1702,0.1716,0.1728,0.176,0.1774,0.1595,0.1595,0.1596,0,0.1389,0.1402,0.1409,0.1423,0.1439,0.1441,0.1457,0.1471,0.1488,0.1509,0.1504,0.1543,0.1553,0.1605,0.1635,0.1619,0.1644,0.1617,0.1712,0.1724,0.1736,0.1766,0.1781,0.1598,0.1598,0.1598,0.1598,0,0.1395,0.1414,0.1426,0.1442,0.1455,0.1483,0.1492,0.1514,0.1517,0.1528,0.1585,0.1612,0.1641,0.1651,0.1659,0.1744,0.1733,0.1716,0.1697,0.1755,0.1782,0.1797,0.1603,0.1602,0.1601,0.16,0,0,0.1377,0.1422,0.1429,0.1443,0.1479,0.1477,0.1511,0.1546,0.1562,0.1595,0.1638,0.1694,0.1715,0.1728,0.1748,0.181,0.1916,0.1809,0.1811,0.1847,0.2036,0.1876,0.1877,0.1921,0.1924,0.1927,0.2018,0,0.1395,0.141,0.1442,0.1465,0.1472,0.1511,0.1541,0.1563,0.159,0.163,0.1683,0.1727,0.1739,0.1768,0.1835,0.1916,0.1961,0.1892,0.197,0.1972,0.1829,0.1891,0.1724,0.1778,0.2033,0.2036,0.2037,0,0.1392,0.1403,0.1432,0.147,0.1482,0.1497,0.1538,0.1574,0.1637,0.1668,0.1728,0.176,0.1881,0.186,0.2027,0.1988,0.2018,0.2061,0.2064,0.191,0.1841,0.1764,0.1796,0.2062,0.206,0.2059,0.2057,0,0.1358,0.1393,0.1414,0.1435,0.1478,0.1506,0.153,0.158,0.1635,0.1705,0.1746,0.185,0.1923,0.2012,0.2097,0.2084,0.225,0.2227,0.2097,0.2086,0.1956,0.1925,0.2308,0.2308,0.2308,0.2307,0.2307,0,0.1368,0.1386,0.1392,0.1425,0.1442,0.1468,0.1529,0.1567,0.1647,0.1711,0.1773,0.1838,0.1973,0.2065,0.2126,0.2163,0.2268,0.2126,0.2108,0.1964,0.1935,0.2188,0.2173,0.2311,0.231,0.2309,0.2309,0,0.1348,0.1374,0.1397,0.1433,0.1445,0.145,0.1546,0.158,0.1657,0.1746,0.1781,0.1886,0.1985,0.2068,0.2205,0.2183,0.2239,0.2198,0.2002,0.1956,0.2032,0.2019,0.2098,0.2094,0.209,0.2086,0.2083,0,0.1352,0.1353,0.1397,0.1413,0.1447,0.1473,0.151,0.1586,0.1628,0.1767,0.1799,0.1902,0.1934,0.2046,0.2027,0.2055,0.2134,0.1888,0.1813,0.2041,0.2016,0.2009,0.2002,0.1677,0.1671,0.1667,0.1663,0,0.1343,0.136,0.1385,0.1418,0.1448,0.1484,0.1531,0.1561,0.1653,0.1721,0.1797,0.1836,0.1865,0.1797,0.177,0.1765,0.1876,0.1783,0.2122,0.172,0.1641,0.1617,0.1625,0.162,0.1624,0.1627,0.1629,0.1631,0.1336,0.1333,0.1366,0.1402,0.1442,0.1467,0.147,0.1514,0.157,0.1605,0.1707,0.1682,0.1641,0.1493,0.1456,0.1426,0.1558,0.151,0.1527,0.155,0.1448,0.1363,0.1271,0.1273,0.1275,0.1277,0.1278,0,0.1298,0.1309,0.1339,0.1368,0.1391,0.1451,0.1461,0.1437,0.1447,0.1459,0.1491,0.1299,0.1217,0.1201,0.1084,0.1057,0.1079,0.1014,0.1059,0.11,0.1138,0.1018,0.0727,0.0725,0.0723,0.0722,0,0,0.1274,0.1277,0.1294,0.1303,0.1346,0.1359,0.1354,0.1303,0.1267,0.1175,0.1111,0.1144,0.1147,0.0913,0.087,0.0799,0.0945,0.075,0.1192,0.1286,0.1322,0.1418,0.1278,0,0,0,0,0]},{"header":{"parameterUnit":"m.s-1","parameterCategory":2,"la1":30.2991,"la2":30.254,"lo1":-89.0895,"lo2":-89.0444,"dy":0.0017,"dx":0.0017,"nx":28,"ny":28,"refTime":"2025-05-30T03:00:00:Z","depth":"2","parameterNumber":3,"parameterNumberName":"V-component_of_CURRENTS"},"data":[0,0,0,0,0,0,0,0,0,0,0,0,0,0,0,0,0,0,0,0,0,0,0,0,0,0,0,0,0,0,0,0,0,0,0,0,0,0,0,0,0,0,0,0,0,0,0,0,0,0,0,0,0,0,0,0,0,0,-0.0048,-0.0048,0,-0.0045,-0.0045,-0.0045,-0.0055,-0.0055,-0.0055,-0.0055,-0.0041,-0.004,-0.004,0,0,0,0,0,0,0,0,0,0,0,0,0,-0.0075,-0.0074,-0.0048,-0.0048,-0.0048,-0.0045,-0.0045,-0.0045,-0.0055,-0.0055,-0.0055,-0.0055,-0.0041,-0.004,-0.004,0,0,0,0,0,0,0,0,0,0,0,0,0,-0.0068,-0.0074,-0.0048,-0.0051,-0.0051,-0.0045,-0.0045,-0.0045,-0.0055,-0.0055,-0.0055,-0.0056,-0.0041,-0.004,-0.004,-0.0031,0,0,-0.0037,-0.0037,0,0,0,0,0,0,0,0,-0.0068,-0.0067,-0.0051,-0.0051,-0.0051,-0.0049,-0.0049,-0.0039,-0.0055,-0.0056,-0.0055,-0.0056,-0.0041,-0.004,-0.0042,-0.003,-0.003,-0.0037,-0.0037,-0.0036,-0.0036,0,0,0,0,0,0,0,-0.0069,-0.0068,-0.0049,-0.0051,-0.0051,-0.0056,-0.0055,-0.0047,-0.0049,-0.0056,-0.0056,-0.0052,-0.0041,-0.0043,-0.0042,-0.003,-0.0037,-0.0036,-0.0036,-0.0036,-0.0016,-0.0016,0,0,0,0,0,0,-0.0064,-0.0068,-0.0049,-0.0049,-0.0058,-0.0055,-0.0055,-0.0051,-0.0049,-0.0048,-0.0052,-0.0053,-0.0044,-0.0043,-0.0041,-0.0039,-0.0036,-0.0036,-0.0035,-0.0016,-0.0016,-0.0016,0,0,0,0,0,0,-0.0065,-0.0063,-0.0049,-0.0057,-0.0055,-0.0054,-0.005,-0.0051,-0.0054,-0.0046,-0.0046,-0.0054,-0.0044,-0.0042,-0.0037,-0.0038,-0.0035,-0.0035,-0.0016,-0.0016,-0.0016,-0.0029,0,0,0,0,0,0,-0.0066,-0.0063,-0.006,-0.0056,-0.0054,-0.0047,-0.005,-0.005,-0.005,-0.0051,-0.0048,-0.0047,-0.0044,-0.0038,-0.0036,-0.0037,-0.0034,-0.0016,-0.0016,-0.0016,-0.0028,-0.0029,-0.003,0,0,0,0,0,-0.0067,-0.0056,-0.006,-0.0058,-0.005,-0.0046,-0.0046,-0.0048,-0.005,-0.0052,-0.005,-0.0047,-0.0036,-0.0038,-0.0035,-0.0036,-0.0016,-0.0016,-0.0016,-0.0028,-0.0029,-0.003,0,0,0,0,0,0,-0.0064,-0.0056,-0.006,-0.0048,-0.005,-0.0047,-0.0043,-0.0048,-0.0048,-0.0046,-0.0046,-0.0044,-0.0039,-0.0035,-0.0036,-0.0029,-0.0026,-0.0025,-0.0035,-0.0036,-0.0037,-0.0053,-0.0033,0,0,0,0,0,-0.0062,-0.0056,-0.0053,-0.0045,-0.0044,-0.0046,-0.0044,-0.0045,-0.0044,-0.0045,-0.0046,-0.0042,-0.0036,-0.0035,-0.0028,-0.0024,-0.0001,-0.0023,-0.0023,-0.0024,-0.0035,0.0016,0.002,-0.0016,-0.0016,-0.0016,0,0,-0.0059,-0.0054,-0.0051,-0.0045,-0.0045,-0.004,-0.0046,-0.004,-0.0042,-0.0041,-0.0044,-0.0042,-0.0034,-0.0031,-0.0029,-0.0029,-0.0001,-0.0024,-0.0024,-0.0036,0.0017,0.002,0.0024,-0.0015,-0.0015,-0.0015,0,0,-0.0046,-0.0045,-0.0035,-0.0037,-0.0033,-0.0033,-0.0032,-0.0033,-0.004,-0.0042,-0.004,-0.0042,-0.0036,-0.0036,-0.0032,-0.0032,-0.0003,-0.0026,-0.0046,0.0004,0.0008,0.0011,0.0047,0.0054,-0.003,-0.003,-0.003,0,-0.0043,-0.0032,-0.0032,-0.0025,-0.0025,-0.003,-0.0023,-0.0029,-0.0032,-0.0036,-0.0044,-0.0042,-0.004,-0.0035,-0.0045,-0.0034,-0.0002,-0.0044,0.0004,0.0008,0.0011,0.0048,0.0055,-0.0031,-0.0031,-0.003,-0.003,0,-0.0024,-0.0019,-0.0013,-0.0008,-0.0008,-0.0003,-0.0009,-0.0013,-0.0023,-0.0032,-0.0037,-0.0043,-0.0042,-0.0043,-0.005,-0.003,-0.0014,0.0002,0.0006,0.0014,0.0052,0.006,-0.0031,-0.0031,-0.0031,-0.0031,0,0,-0.0008,-0.0,-0.0,0.0002,0.0,0.0005,0.0002,-0.0002,0.0001,-0.0021,-0.0018,-0.0041,-0.005,-0.0049,-0.0052,-0.0032,0.0012,-0.0015,-0.0012,0.0021,0.0122,0.0102,0.0109,0.0047,0.0048,0.0049,0.0139,0,0.0005,0.0024,0.0019,0.0028,0.0037,0.0024,0.0022,0.0016,0.0009,0.0012,-0.001,-0.0006,-0.0047,-0.0043,-0.0034,0.0015,0.0032,-0.0015,0.0108,0.0111,0.0093,0.0117,0.0095,0.0171,0.0147,0.0148,0.0149,0,0.0025,0.0034,0.0049,0.0048,0.005,0.0049,0.005,0.0046,0.0043,0.0037,0.0024,0.0021,0.0025,0.0003,0.0059,0.0037,0.0065,0.0092,0.0097,0.0084,0.0106,0.0159,0.0187,0.0163,0.0162,0.0161,0.016,0,0.0045,0.0053,0.0065,0.0064,0.0064,0.0061,0.0055,0.0052,0.0056,0.0058,0.0079,0.0071,0.01,0.0118,0.0146,0.0119,0.0231,0.0216,0.0217,0.0216,0.0222,0.0219,0.0257,0.0257,0.0256,0.0256,0.0256,0,0.0063,0.007,0.0074,0.0077,0.0083,0.0076,0.008,0.0074,0.0086,0.012,0.0091,0.0148,0.0136,0.0192,0.0188,0.0233,0.0273,0.0212,0.024,0.0215,0.0211,0.0219,0.0213,0.026,0.0259,0.0258,0.0258,0,0.0081,0.0085,0.0094,0.0094,0.0092,0.0094,0.0091,0.0109,0.0113,0.0168,0.0176,0.0231,0.0309,0.0295,0.0363,0.0312,0.0345,0.035,0.0307,0.0325,0.0278,0.0271,0.035,0.035,0.035,0.035,0.035,0,0.0091,0.0102,0.0104,0.0115,0.011,0.0111,0.0122,0.0115,0.0153,0.0243,0.0298,0.0376,0.0476,0.0535,0.0456,0.0438,0.0419,0.0375,0.0295,0.027,0.0289,0.0281,0.0274,0.0307,0.0307,0.0306,0.0306,0,0.0106,0.0107,0.0115,0.0141,0.0152,0.0168,0.0193,0.0234,0.027,0.0364,0.0535,0.0629,0.0641,0.0629,0.0537,0.0502,0.0361,0.0366,0.0402,0.027,0.0232,0.025,0.0244,0.0304,0.0304,0.0304,0.0304,0.0304,0.0114,0.0126,0.0147,0.0173,0.0193,0.0254,0.0304,0.039,0.0508,0.0682,0.0732,0.0861,0.074,0.0647,0.0546,0.038,0.0395,0.0316,0.0316,0.0317,0.0278,0.0242,0.0308,0.0308,0.0308,0.0308,0.0309,0,0.013,0.0156,0.0184,0.0229,0.0283,0.0271,0.038,0.0485,0.0696,0.0809,0.0976,0.0883,0.0832,0.0675,0.0426,0.03,0.0274,0.0251,0.0237,0.024,0.0243,0.02,0.0209,0.0209,0.0208,0.0208,0,0,0.0143,0.0181,0.0204,0.0308,0.0343,0.0425,0.0505,0.0715,0.0829,0.1014,0.1049,0.1087,0.0863,0.066,0.0484,0.0341,0.0319,0.0311,0.0403,0.0411,0.0415,0.0293,0.0232,0,0,0,0,0]}],[{"header":{"parameterUnit":"m.s-1","parameterCategory":2,"la1":30.2991,"la2":30.254,"lo1":-89.0895,"lo2":-89.0444,"dy":0.0017,"dx":0.0017,"nx":28,"ny":28,"refTime":"2025-05-30T03:00:00:Z","depth":"4","parameterNumber":2,"parameterNumberName":"U-component_of_CURRENTS"},"data":[0,0,0,0,0,0,0,0,0,0,0,0,0,0,0,0,0,0,0,0,0,0,0,0,0,0,0,0,0,0,0,0,0,0,0,0,0,0,0,0,0,0,0,0,0,0,0,0,0,0,0,0,0,0,0,0,0,0,0.0516,0.0516,0,0.0487,0.0487,0.0486,0.0499,0.0501,0.0502,0.0503,0.058,0.0581,0.0582,0,0,0,0,0,0,0,0,0,0,0,0,0,0.0521,0.0521,0.0516,0.0516,0.0516,0.0487,0.0487,0.0486,0.0499,0.0501,0.0502,0.0503,0.058,0.0581,0.0582,0,0,0,0,0,0,0,0,0,0,0,0,0,0.0503,0.0521,0.0516,0.0523,0.0524,0.0488,0.0487,0.0485,0.0499,0.0501,0.0503,0.0504,0.0579,0.0581,0.0582,0.0554,0,0,0.0586,0.0587,0,0,0,0,0,0,0,0,0.0504,0.0502,0.0522,0.0523,0.0523,0.0503,0.0517,0.0516,0.0498,0.0503,0.0503,0.0505,0.0566,0.0569,0.055,0.0558,0.0561,0.0586,0.0587,0.0588,0.0588,0,0,0,0,0,0,0,0.0506,0.0504,0.0499,0.0522,0.0523,0.0508,0.0507,0.0515,0.0523,0.0503,0.0505,0.0509,0.0567,0.0549,0.0553,0.0562,0.0586,0.0588,0.0588,0.0589,0.0636,0.0636,0,0,0,0,0,0,0.0521,0.0505,0.05,0.0499,0.0524,0.0507,0.0506,0.0504,0.052,0.0525,0.0508,0.051,0.0546,0.0551,0.0556,0.0586,0.0588,0.0589,0.059,0.0636,0.0636,0.0637,0,0,0,0,0,0,0.0521,0.052,0.0501,0.0506,0.0503,0.0506,0.0502,0.0502,0.0521,0.0524,0.053,0.0533,0.0547,0.0554,0.0579,0.0587,0.059,0.0591,0.0635,0.0636,0.0636,0.0607,0,0,0,0,0,0,0.0521,0.052,0.0528,0.0507,0.0504,0.0498,0.0501,0.0501,0.0522,0.0525,0.0547,0.0553,0.0549,0.0577,0.058,0.0589,0.0592,0.0635,0.0635,0.0636,0.0607,0.0607,0.0606,0,0,0,0,0,0.0521,0.0521,0.0528,0.0529,0.0513,0.0499,0.0496,0.05,0.0522,0.0525,0.0538,0.0554,0.0585,0.0577,0.0582,0.0591,0.0634,0.0635,0.0636,0.0608,0.0607,0.0606,0,0,0,0,0,0,0.0525,0.0522,0.053,0.053,0.0527,0.0504,0.0507,0.0518,0.0527,0.054,0.0551,0.0557,0.0588,0.0594,0.0586,0.0609,0.0616,0.0618,0.0593,0.0592,0.0591,0.0597,0.0593,0,0,0,0,0,0.0531,0.0535,0.0528,0.0531,0.0531,0.0527,0.0528,0.0532,0.0534,0.0541,0.0548,0.0566,0.0585,0.0595,0.0608,0.0613,0.0647,0.0626,0.0625,0.0625,0.0633,0.0701,0.0707,0.064,0.064,0.064,0,0,0.0535,0.0535,0.0538,0.0534,0.0529,0.0512,0.0531,0.0536,0.052,0.0549,0.0536,0.0569,0.059,0.0594,0.0609,0.0605,0.0657,0.0626,0.0625,0.0634,0.0703,0.0709,0.0715,0.064,0.064,0.064,0,0,0.0533,0.0544,0.0542,0.0533,0.0535,0.0524,0.0538,0.0526,0.0523,0.0518,0.0543,0.0575,0.0587,0.0593,0.0604,0.0609,0.0658,0.0631,0.062,0.0685,0.0691,0.0697,0.0726,0.0735,0.062,0.062,0.062,0,0.0544,0.0531,0.054,0.0524,0.0513,0.0535,0.0516,0.0505,0.0501,0.0502,0.0518,0.0556,0.0578,0.0594,0.0601,0.0606,0.0654,0.0617,0.0684,0.0691,0.0698,0.0726,0.0737,0.0619,0.0619,0.0619,0.0619,0,0.0522,0.0517,0.0513,0.0497,0.0484,0.0477,0.0461,0.0458,0.047,0.0467,0.0495,0.0517,0.055,0.0562,0.0587,0.0643,0.0664,0.0682,0.0685,0.0703,0.0731,0.0742,0.0617,0.0617,0.0618,0.0618,0,0,0.0531,0.0506,0.0505,0.0486,0.047,0.0452,0.043,0.0416,0.0415,0.0425,0.0436,0.0471,0.0519,0.0537,0.0575,0.0628,0.071,0.0687,0.0691,0.0712,0.0852,0.0748,0.075,0.0762,0.0764,0.0766,0.0845,0,0.0516,0.048,0.047,0.043,0.0404,0.0402,0.0377,0.037,0.0375,0.0387,0.0431,0.0472,0.0497,0.0545,0.0595,0.0696,0.0744,0.0686,0.0836,0.0839,0.0742,0.0761,0.0773,0.0853,0.0856,0.0858,0.0859,0,0.0491,0.0466,0.0428,0.0388,0.0379,0.0364,0.0337,0.0321,0.0344,0.0363,0.0408,0.046,0.0537,0.0573,0.0712,0.0688,0.0777,0.084,0.0844,0.0769,0.0756,0.0839,0.088,0.0878,0.0877,0.0875,0.0874,0,0.0468,0.0434,0.0403,0.0386,0.0348,0.0338,0.0331,0.0327,0.0329,0.0379,0.0419,0.0483,0.056,0.0664,0.0778,0.0782,0.0935,0.0944,0.0915,0.0908,0.0992,0.0986,0.1057,0.1057,0.1057,0.1057,0.1057,0,0.0438,0.0414,0.0399,0.0371,0.0332,0.0328,0.031,0.0306,0.0353,0.037,0.0433,0.0477,0.0608,0.0696,0.0788,0.0867,0.0938,0.0918,0.0928,0.0973,0.0964,0.0999,0.0991,0.106,0.1059,0.1059,0.1058,0,0.0409,0.0406,0.0349,0.0318,0.0314,0.0284,0.0296,0.0291,0.0355,0.039,0.0431,0.0522,0.0628,0.0712,0.0878,0.0875,0.0963,0.098,0.0998,0.1007,0.0889,0.0879,0.0949,0.0946,0.0944,0.0942,0.094,0,0.0391,0.0369,0.0301,0.0257,0.0244,0.0228,0.0218,0.0278,0.0294,0.0403,0.0427,0.0552,0.0603,0.0726,0.0822,0.0928,0.0944,0.0958,0.0941,0.0879,0.0883,0.0876,0.0869,0.0936,0.0936,0.0935,0.0934,0,0.0349,0.0331,0.0274,0.0185,0.0156,0.012,0.0136,0.0168,0.0253,0.0329,0.0424,0.05,0.0597,0.0691,0.0767,0.0851,0.0922,0.0932,0.0939,0.0924,0.0864,0.0868,0.0865,0.0926,0.0927,0.0928,0.0928,0,0.0311,0.0258,0.019,0.01,0.0056,0.0027,0.004,0.0098,0.0154,0.0313,0.0343,0.0477,0.058,0.0653,0.073,0.0779,0.0792,0.0777,0.0792,0.0802,0.0718,0.0618,0.0617,0,0,0,0,0,0.0278,0.0212,0.0115,0.0015,-0.0029,-0.0043,-0.0013,0.003,0.0153,0.0203,0.0284,0.0376,0.0494,0.0567,0.06,0.0664,0.0779,0.0694,0.0764,0.0879,0.0889,0.0803,0,0,0,0,0,0,0.0248,0.0172,0.01,-0.002,-0.0086,-0.0115,-0.0095,-0.0024,0.0026,0.0157,0.0233,0.0331,0.046,0.0478,0.0587,0.0609,0.0639,0.0784,0.0783,0.0873,0.0882,0.089,0.0805,0,0,0,0,0]},{"header":{"parameterUnit":"m.s-1","parameterCategory":2,"la1":30.2991,"la2":30.254,"lo1":-89.0895,"lo2":-89.0444,"dy":0.0017,"dx":0.0017,"nx":28,"ny":28,"refTime":"2025-05-30T03:00:00:Z","depth":"4","parameterNumber":3,"parameterNumberName":"V-component_of_CURRENTS"},"data":[0,0,0,0,0,0,0,0,0,0,0,0,0,0,0,0,0,0,0,0,0,0,0,0,0,0,0,0,0,0,0,0,0,0,0,0,0,0,0,0,0,0,0,0,0,0,0,0,0,0,0,0,0,0,0,0,0,0,0.0074,0.0074,0,0.0092,0.0092,0.0093,0.0089,0.0089,0.0088,0.0088,0.0097,0.0097,0.0098,0,0,0,0,0,0,0,0,0,0,0,0,0,0.0045,0.0045,0.0074,0.0074,0.0074,0.0092,0.0092,0.0093,0.0089,0.0089,0.0088,0.0088,0.0096,0.0097,0.0098,0,0,0,0,0,0,0,0,0,0,0,0,0,0.0061,0.0046,0.0074,0.0074,0.0074,0.0092,0.0092,0.0093,0.0089,0.0089,0.0088,0.0088,0.0096,0.0097,0.0098,0.0117,0,0,0.0101,0.0101,0,0,0,0,0,0,0,0,0.006,0.0062,0.0074,0.0074,0.0074,0.0087,0.0085,0.01,0.009,0.0085,0.0088,0.0087,0.0092,0.0093,0.01,0.0117,0.0118,0.0101,0.0102,0.0102,0.0102,0,0,0,0,0,0,0,0.0059,0.0061,0.0083,0.0074,0.0074,0.0075,0.0077,0.0088,0.0093,0.0085,0.0085,0.0085,0.0092,0.0099,0.01,0.0118,0.0101,0.0102,0.0102,0.0103,0.0129,0.0129,0,0,0,0,0,0,0.0055,0.006,0.0082,0.0083,0.0064,0.0076,0.0078,0.0084,0.0093,0.0093,0.0085,0.0085,0.0098,0.0099,0.01,0.0126,0.0102,0.0103,0.0103,0.0129,0.0129,0.0129,0,0,0,0,0,0,0.0054,0.0057,0.0081,0.0071,0.0074,0.0077,0.0084,0.0085,0.0086,0.0093,0.0093,0.0084,0.0097,0.0099,0.0111,0.0126,0.0103,0.0104,0.0129,0.0129,0.0129,0.0175,0,0,0,0,0,0,0.0053,0.0056,0.0058,0.0071,0.0074,0.0095,0.0085,0.0086,0.0087,0.0086,0.0092,0.0093,0.0097,0.0109,0.0112,0.0127,0.0105,0.0129,0.0129,0.0129,0.0174,0.0177,0.018,0,0,0,0,0,0.0052,0.0062,0.0059,0.0061,0.0077,0.0096,0.0098,0.0099,0.0087,0.0095,0.0097,0.0092,0.0112,0.0111,0.0113,0.0129,0.0129,0.0129,0.0129,0.0172,0.0176,0.018,0,0,0,0,0,0,0.0053,0.0063,0.0059,0.0072,0.0082,0.0094,0.0101,0.0097,0.0105,0.0102,0.0101,0.0103,0.0115,0.0113,0.0111,0.0134,0.0117,0.0118,0.0149,0.0153,0.0156,0.018,0.0106,0,0,0,0,0,0.0053,0.0062,0.0072,0.0081,0.0086,0.0091,0.0096,0.0098,0.0106,0.0108,0.0112,0.0114,0.012,0.0128,0.0132,0.0153,0.0138,0.016,0.0163,0.0166,0.0186,0.0155,0.0157,0.013,0.013,0.013,0,0,0.0054,0.0061,0.0065,0.0081,0.0088,0.011,0.0093,0.0106,0.0128,0.0109,0.0135,0.0124,0.0125,0.0146,0.0151,0.0148,0.0166,0.0166,0.0169,0.0188,0.0156,0.0158,0.0161,0.0131,0.0131,0.0131,0,0,0.0067,0.007,0.0082,0.0096,0.0108,0.0119,0.012,0.0133,0.0142,0.0165,0.0151,0.0154,0.0167,0.0176,0.018,0.0203,0.0178,0.0193,0.0241,0.021,0.0212,0.0214,0.0202,0.0202,0.0201,0.0201,0.0201,0,0.0066,0.0088,0.0089,0.011,0.0127,0.0123,0.015,0.0165,0.018,0.0197,0.0178,0.0195,0.0188,0.0219,0.0226,0.0213,0.0192,0.0229,0.0215,0.0216,0.0217,0.0205,0.0205,0.0203,0.0203,0.0203,0.0203,0,0.0094,0.0112,0.0123,0.0151,0.017,0.0193,0.0214,0.0236,0.024,0.0251,0.0274,0.0263,0.0275,0.0266,0.0258,0.0268,0.0248,0.0216,0.0208,0.0223,0.0208,0.0208,0.0206,0.0206,0.0205,0.0204,0,0,0.0096,0.0134,0.0139,0.0164,0.0196,0.022,0.0264,0.0307,0.0338,0.0342,0.0375,0.038,0.0362,0.0365,0.0343,0.0324,0.0308,0.0279,0.0277,0.0275,0.0249,0.0235,0.0232,0.0263,0.0263,0.0263,0.0237,0,0.0118,0.0166,0.0181,0.0237,0.0267,0.0292,0.0336,0.0374,0.0394,0.0424,0.0417,0.0432,0.0403,0.0401,0.038,0.0319,0.0307,0.032,0.0229,0.0228,0.0218,0.0231,0.0263,0.0236,0.0236,0.0236,0.0236,0,0.0142,0.0176,0.023,0.0293,0.0309,0.0344,0.0419,0.0458,0.05,0.0513,0.0527,0.0509,0.0504,0.0457,0.0393,0.0396,0.0338,0.029,0.0286,0.0261,0.0212,0.0216,0.0233,0.0234,0.0234,0.0234,0.0234,0,0.0154,0.0212,0.026,0.0281,0.0349,0.0389,0.043,0.0486,0.0531,0.0565,0.0582,0.057,0.055,0.0487,0.04,0.0387,0.031,0.0275,0.0219,0.0218,0.0218,0.0216,0.0234,0.0234,0.0234,0.0234,0.0234,0,0.0178,0.0216,0.0271,0.0302,0.0376,0.0411,0.0493,0.0532,0.0583,0.0624,0.0621,0.063,0.0548,0.0496,0.042,0.0324,0.0326,0.0243,0.0211,0.0238,0.0239,0.0218,0.0216,0.0233,0.0233,0.0233,0.0234,0,0.018,0.0214,0.0277,0.0353,0.0385,0.0438,0.0538,0.0597,0.0629,0.0675,0.0685,0.0667,0.0596,0.0523,0.0408,0.0343,0.0257,0.0223,0.0281,0.0251,0.0184,0.0185,0.0164,0.0164,0.0163,0.0163,0.0162,0,0.0184,0.0213,0.031,0.0359,0.0396,0.0483,0.0554,0.0622,0.0669,0.0691,0.0703,0.066,0.0632,0.0479,0.0393,0.0272,0.0243,0.0206,0.0185,0.0206,0.0177,0.0179,0.0181,0.0161,0.0161,0.0161,0.0161,0,0.0192,0.0223,0.0279,0.0379,0.0461,0.0552,0.0634,0.0668,0.0724,0.0749,0.0712,0.0649,0.0568,0.0463,0.0375,0.0283,0.0235,0.0199,0.02,0.0179,0.0201,0.0174,0.0177,0.0159,0.0159,0.0159,0.0159,0,0.0198,0.0235,0.0311,0.0403,0.0499,0.0581,0.0635,0.0678,0.0728,0.0728,0.0708,0.0635,0.0592,0.0468,0.0386,0.0301,0.0267,0.0225,0.0223,0.0224,0.0245,0.0282,0.025,0,0,0,0,0,0.0206,0.0254,0.0331,0.0441,0.0531,0.0593,0.0673,0.0713,0.0749,0.0722,0.0712,0.0638,0.0509,0.0465,0.0376,0.0373,0.0259,0.0264,0.021,0.0148,0.015,0.0162,0,0,0,0,0,0,0.0218,0.0283,0.033,0.0447,0.0524,0.0636,0.0688,0.0715,0.0696,0.0698,0.0636,0.0606,0.0492,0.0558,0.0371,0.0348,0.0298,0.0213,0.0211,0.0146,0.0148,0.015,0.0163,0,0,0,0,0]}]]